2020-12-03 00:07:50 r, 17.64m,0000000007Hz,0000062020c,0000000.135s, 007.4C,00002191
2020-12-03 00:17:50 r, 17.43m,0000000009Hz,0000051648c,0000000.112s, 007.4C,00002191
2020-12-03 00:27:52 r, 17.20m,0000000011Hz,0000041701c,0000000.090s, 007.4C,00002191
2020-12-03 00:37:51 r, 16.94m,0000000014Hz,0000032713c,0000000.071s, 007.4C,00002191
2020-12-03 00:47:50 r, 16.60m,0000000019Hz,0000024046c,0000000.052s, 007.4C,00002191
2020-12-03 00:57:53 r, 16.29m,0000000026Hz,0000018010c,0000000.039s, 007.4C,00002191
2020-12-03 01:07:51 r, 16.07m,0000000031Hz,0000014691c,0000000.032s, 007.4C,00002191
2020-12-03 01:17:50 r, 15.94m,0000000035Hz,0000013004c,0000000.028s, 007.4C,00002191
2020-12-03 01:27:53 r, 15.83m,0000000039Hz,0000011772c,0000000.026s, 007.4C,00002191
2020-12-03 01:37:51 r, 15.71m,0000000044Hz,0000010543c,0000000.023s, 007.4C,00002191
2020-12-03 01:47:50 r, 15.59m,0000000049Hz,0000009502c,0000000.021s, 007.4C,00002191
2020-12-03 01:57:51 r, 15.50m,0000000053Hz,0000008737c,0000000.019s, 007.0C,00002191
2020-12-03 02:07:52 r, 15.44m,0000000057Hz,0000008192c,0000000.018s, 007.0C,00002191
2020-12-03 02:17:50 r, 15.38m,0000000059Hz,0000007769c,0000000.017s, 006.7C,00002191
2020-12-03 02:27:52 r, 15.35m,0000000061Hz,0000007573c,0000000.016s, 006.7C,00002191
2020-12-03 02:37:51 r, 15.34m,0000000061Hz,0000007491c,0000000.016s, 006.7C,00002191
2020-12-03 02:47:50 r, 15.36m,0000000060Hz,0000007637c,0000000.017s, 006.7C,00002191
2020-12-03 02:57:51 r, 15.40m,0000000058Hz,0000007936c,0000000.017s, 006.7C,00002191
2020-12-03 03:07:53 r, 15.45m,0000000055Hz,0000008379c,0000000.018s, 006.7C,00002191
2020-12-03 03:17:50 r, 15.53m,0000000051Hz,0000009023c,0000000.020s, 007.0C,00002191
2020-12-03 03:27:53 r, 15.64m,0000000046Hz,0000009897c,0000000.021s, 007.0C,00002191
2020-12-03 03:37:51 r, 15.77m,0000000041Hz,0000011120c,0000000.024s, 007.0C,00002191
2020-12-03 03:47:50 r, 15.94m,0000000035Hz,0000013072c,0000000.028s, 007.0C,00002191
2020-12-03 03:57:53 r, 16.14m,0000000030Hz,0000015644c,0000000.034s, 007.0C,00002191
2020-12-03 04:07:51 r, 16.38m,0000000023Hz,0000019564c,0000000.042s, 007.0C,00002191
2020-12-03 04:17:50 r, 16.69m,0000000018Hz,0000026082c,0000000.057s, 007.0C,00002191
2020-12-03 04:27:51 r, 17.02m,0000000013Hz,0000035430c,0000000.077s, 007.0C,00002191
2020-12-03 04:37:52 r, 17.22m,0000000011Hz,0000042527c,0000000.092s, 007.0C,00002191
2020-12-03 04:47:50 r, 17.39m,0000000009Hz,0000049440c,0000000.107s, 007.0C,00002191
2020-12-03 04:57:52 r, 17.56m,0000000008Hz,0000057861c,0000000.126s, 007.0C,00002191
2020-12-03 05:07:51 r, 17.67m,0000000007Hz,0000064370c,0000000.140s, 007.0C,00002191
2020-12-03 05:17:50 r, 17.80m,0000000006Hz,0000072541c,0000000.157s, 007.0C,00002191
2020-12-03 05:27:51 r, 17.99m,0000000005Hz,0000086305c,0000000.187s, 007.0C,00002191
2020-12-03 05:37:53 r, 18.12m,0000000005Hz,0000096982c,0000000.210s, 007.0C,00002191
2020-12-03 05:47:50 r, 18.21m,0000000004Hz,0000105348c,0000000.229s, 007.0C,00002191
2020-12-03 05:57:53 r, 18.31m,0000000004Hz,0000115612c,0000000.251s, 006.7C,00002191
2020-12-03 06:07:51 r, 18.39m,0000000004Hz,0000124826c,0000000.271s, 006.7C,00002191
2020-12-03 06:17:50 r, 18.49m,0000000003Hz,0000136980c,0000000.297s, 006.7C,00002191
2020-12-03 06:27:51 r, 18.59m,0000000004Hz,0000149507c,0000000.324s, 006.7C,00002191
2020-12-03 06:37:52 r, 18.65m,0000000002Hz,0000158354c,0000000.344s, 006.4C,00002191
2020-12-03 06:47:50 r, 18.58m,0000000003Hz,0000148700c,0000000.323s, 006.4C,00002191
2020-12-03 06:57:52 r, 18.18m,0000000004Hz,0000102964c,0000000.223s, 006.4C,00002191
2020-12-03 07:07:51 r, 17.33m,0000000010Hz,0000046771c,0000000.101s, 006.4C,00002191
2020-12-03 07:17:50 r, 15.83m,0000000039Hz,0000011749c,0000000.025s, 006.4C,00002191
2020-12-03 07:27:51 r, 14.00m,0000000212Hz,0000000000c,0000000.000s, 006.4C,00002191
2020-12-03 07:37:53 r, 12.01m,0000001331Hz,0000000000c,0000000.000s, 006.4C,00002191
2020-12-03 07:47:50 r, 10.11m,0000007629Hz,0000000000c,0000000.000s, 006.4C,00002191
2020-12-03 07:57:53 r, 08.68m,0000028568Hz,0000000000c,0000000.000s, 006.7C,00002191
2020-12-03 08:07:51 r, 07.71m,0000070068Hz,0000000000c,0000000.000s, 006.7C,00002191
2020-12-03 08:17:50 r, 06.96m,0000139486Hz,0000000000c,0000000.000s, 006.7C,00002191
2020-12-03 08:27:53 r, 06.39m,0000234144Hz,0000000000c,0000000.000s, 007.0C,00002191
2020-12-03 08:37:51 r, 06.03m,0000328088Hz,0000000000c,0000000.000s, 007.0C,00002191
2020-12-03 08:47:50 r, 00.00m,0000440164Hz,0000000000c,0000000.000s, 007.4C,00002191
2020-12-03 08:57:51 r, 00.00m,0000539937Hz,0000000000c,0000000.000s, 008.3C,00002191
2020-12-03 09:07:52 r, 00.00m,0000598432Hz,0000000000c,0000000.000s, 009.3C,00002191
2020-12-03 09:17:50 r, 00.00m,0000598456Hz,0000000000c,0000000.000s, 010.6C,00002191
2020-12-03 09:27:52 r, 00.00m,0000598253Hz,0000000000c,0000000.000s, 012.2C,00002191
2020-12-03 09:37:51 r, 00.00m,0000598164Hz,0000000000c,0000000.000s, 013.2C,00002191
2020-12-03 09:47:50 r, 00.00m,0000598126Hz,0000000000c,0000000.000s, 013.5C,00002191
2020-12-03 09:57:51 r, 00.00m,0000598066Hz,0000000000c,0000000.000s, 013.2C,00002191
2020-12-03 10:07:53 r, 00.00m,0000598142Hz,0000000000c,0000000.000s, 013.8C,00002191
2020-12-03 10:17:50 r, 00.00m,0000598012Hz,0000000000c,0000000.000s, 014.5C,00002191
2020-12-03 10:27:53 r, 00.00m,0000598129Hz,0000000000c,0000000.000s, 014.8C,00002191
2020-12-03 10:37:51 r, 00.00m,0000597983Hz,0000000000c,0000000.000s, 015.4C,00002191
2020-12-03 10:47:50 r, 00.00m,0000597872Hz,0000000000c,0000000.000s, 016.4C,00002191
2020-12-03 10:57:53 r, 00.00m,0000597935Hz,0000000000c,0000000.000s, 016.4C,00002191
2020-12-03 11:07:51 r, 00.00m,0000597825Hz,0000000000c,0000000.000s, 016.7C,00002191
2020-12-03 11:17:50 r, 00.00m,0000597863Hz,0000000000c,0000000.000s, 016.7C,00002191
2020-12-03 11:27:51 r, 00.00m,0000597778Hz,0000000000c,0000000.000s, 017.7C,00002191
2020-12-03 11:37:52 r, 00.00m,0000597749Hz,0000000000c,0000000.000s, 018.3C,00002191
2020-12-03 11:47:50 r, 00.00m,0000597769Hz,0000000000c,0000000.000s, 018.3C,00002191
2020-12-03 11:57:52 r, 00.00m,0000597782Hz,0000000000c,0000000.000s, 017.7C,00002191
2020-12-03 12:07:51 r, 00.00m,0000597835Hz,0000000000c,0000000.000s, 016.7C,00002191
2020-12-03 12:17:50 r, 00.00m,0000598040Hz,0000000000c,0000000.000s, 016.1C,00002191
2020-12-03 12:27:51 r, 00.00m,0000598027Hz,0000000000c,0000000.000s, 015.7C,00002191
2020-12-03 12:37:53 r, 00.00m,0000598018Hz,0000000000c,0000000.000s, 015.7C,00002191
2020-12-03 12:47:50 r, 00.00m,0000598023Hz,0000000000c,0000000.000s, 016.1C,00002191
2020-12-03 12:57:53 r, 00.00m,0000598003Hz,0000000000c,0000000.000s, 016.1C,00002191
2020-12-03 13:07:51 r, 00.00m,0000597946Hz,0000000000c,0000000.000s, 015.7C,00002191
2020-12-03 13:17:50 r, 00.00m,0000597936Hz,0000000000c,0000000.000s, 015.7C,00002191
2020-12-03 13:27:51 r, 00.00m,0000597969Hz,0000000000c,0000000.000s, 015.7C,00002191
2020-12-03 13:37:52 r, 00.00m,0000598004Hz,0000000000c,0000000.000s, 016.1C,00002191
2020-12-03 13:47:50 r, 00.00m,0000597989Hz,0000000000c,0000000.000s, 015.7C,00002191
2020-12-03 13:57:52 r, 00.00m,0000597938Hz,0000000000c,0000000.000s, 016.1C,00002191
2020-12-03 14:07:51 r, 00.00m,0000597934Hz,0000000000c,0000000.000s, 016.1C,00002191
2020-12-03 14:17:50 r, 00.00m,0000597983Hz,0000000000c,0000000.000s, 016.1C,00002191
2020-12-03 14:27:51 r, 00.00m,0000597893Hz,0000000000c,0000000.000s, 016.1C,00002191
2020-12-03 14:37:53 r, 00.00m,0000597933Hz,0000000000c,0000000.000s, 016.4C,00002191
2020-12-03 14:47:50 r, 00.00m,0000533927Hz,0000000000c,0000000.000s, 016.1C,00002191
2020-12-03 14:57:53 r, 00.00m,0000574080Hz,0000000000c,0000000.000s, 016.1C,00002191
2020-12-03 15:07:51 r, 00.00m,0000500828Hz,0000000000c,0000000.000s, 016.1C,00002191
2020-12-03 15:17:50 r, 00.00m,0000470496Hz,0000000000c,0000000.000s, 015.7C,00002191
2020-12-03 15:27:50 r, 05.88m,0000376161Hz,0000000000c,0000000.000s, 015.4C,00002191
2020-12-03 15:37:51 r, 05.89m,0000372606Hz,0000000000c,0000000.000s, 015.1C,00002191
2020-12-03 15:47:50 r, 05.87m,0000377142Hz,0000000000c,0000000.000s, 014.8C,00002191
2020-12-03 15:57:50 r, 06.15m,0000293827Hz,0000000000c,0000000.000s, 015.1C,00002191
2020-12-03 16:07:52 r, 06.46m,0000220181Hz,0000000000c,0000000.000s, 015.1C,00002191
2020-12-03 16:17:50 r, 06.90m,0000146540Hz,0000000000c,0000000.000s, 015.1C,00002191
2020-12-03 16:27:50 r, 07.56m,0000080895Hz,0000000000c,0000000.000s, 014.5C,00002191
2020-12-03 16:37:53 r, 08.49m,0000033960Hz,0000000000c,0000000.000s, 014.1C,00002191
2020-12-03 16:47:50 r, 09.85m,0000009745Hz,0000000000c,0000000.000s, 013.2C,00002191
2020-12-03 16:57:50 r, 11.64m,0000001864Hz,0000000000c,0000000.000s, 012.8C,00002191
2020-12-03 17:07:53 r, 13.60m,0000000309Hz,0000000000c,0000000.000s, 012.2C,00002191
2020-12-03 17:17:51 r, 15.45m,0000000055Hz,0000008370c,0000000.018s, 011.6C,00002191
2020-12-03 17:27:50 r, 17.09m,0000000013Hz,0000037445c,0000000.081s, 011.2C,00002191
2020-12-03 17:37:51 r, 18.50m,0000000004Hz,0000136200c,0000000.296s, 011.2C,00002191
2020-12-03 17:47:52 r, 19.61m,0000000001Hz,0000379321c,0000000.823s, 010.9C,00002191
2020-12-03 17:57:50 r, 20.25m,0000000001Hz,0000676876c,0000001.469s, 010.6C,00002191
2020-12-03 18:07:52 r, 20.48m,0000000001Hz,0000838379c,0000001.819s, 010.6C,00002191
2020-12-03 18:17:51 r, 20.54m,0000000001Hz,0000886273c,0000001.923s, 010.3C,00002191
2020-12-03 18:27:50 r, 20.55m,0000000001Hz,0000899405c,0000001.952s, 009.9C,00002191
2020-12-03 18:37:51 r, 20.57m,0000000001Hz,0000910422c,0000001.976s, 009.9C,00002191
2020-12-03 18:47:53 r, 20.53m,0000000001Hz,0000883476c,0000001.917s, 009.9C,00002191
2020-12-03 18:57:50 r, 20.51m,0000000000Hz,0000863509c,0000001.874s, 009.9C,00002191
2020-12-03 19:07:53 r, 20.45m,0000000001Hz,0000812733c,0000001.764s, 009.9C,00002191
2020-12-03 19:17:51 r, 20.37m,0000000000Hz,0000759591c,0000001.648s, 009.6C,00002191
2020-12-03 19:27:50 r, 20.32m,0000000001Hz,0000723014c,0000001.569s, 009.6C,00002191
2020-12-03 19:37:53 r, 20.25m,0000000001Hz,0000678811c,0000001.473s, 009.3C,00002191
2020-12-03 19:47:51 r, 20.16m,0000000001Hz,0000624011c,0000001.354s, 009.0C,00002191
2020-12-03 19:57:50 r, 20.05m,0000000001Hz,0000566309c,0000001.229s, 009.0C,00002191
2020-12-03 20:07:51 r, 19.97m,0000000001Hz,0000529322c,0000001.149s, 009.0C,00002191
2020-12-03 20:17:53 r, 19.92m,0000000001Hz,0000507821c,0000001.102s, 009.0C,00002191
2020-12-03 20:27:50 r, 19.85m,0000000001Hz,0000479031c,0000001.040s, 008.7C,00002191
2020-12-03 20:37:52 r, 19.79m,0000000001Hz,0000453266c,0000000.984s, 008.7C,00002191
2020-12-03 20:47:51 r, 19.73m,0000000002Hz,0000428257c,0000000.929s, 008.7C,00002191
2020-12-03 20:57:50 r, 19.68m,0000000001Hz,0000407070c,0000000.883s, 008.7C,00002191
2020-12-03 21:07:53 r, 19.63m,0000000002Hz,0000388848c,0000000.844s, 008.7C,00002191
2020-12-03 21:17:51 r, 19.57m,0000000001Hz,0000368752c,0000000.800s, 008.7C,00002191
2020-12-03 21:27:50 r, 19.51m,0000000002Hz,0000351268c,0000000.762s, 008.3C,00002191
2020-12-03 21:37:53 r, 19.48m,0000000001Hz,0000338114c,0000000.734s, 008.0C,00002191
2020-12-03 21:47:51 r, 19.43m,0000000002Hz,0000327346c,0000000.710s, 008.0C,00002191
2020-12-03 21:57:50 r, 19.38m,0000000002Hz,0000310856c,0000000.675s, 008.0C,00002191
2020-12-03 22:07:51 r, 19.36m,0000000001Hz,0000303367c,0000000.658s, 007.7C,00002191
2020-12-03 22:17:52 r, 19.29m,0000000002Hz,0000286013c,0000000.621s, 007.7C,00002191
2020-12-03 22:27:50 r, 19.24m,0000000001Hz,0000274396c,0000000.595s, 007.7C,00002191
2020-12-03 22:37:52 r, 19.20m,0000000001Hz,0000262394c,0000000.569s, 007.7C,00002191
2020-12-03 22:47:51 r, 19.15m,0000000002Hz,0000250533c,0000000.544s, 007.7C,00002191
2020-12-03 22:57:50 r, 19.11m,0000000001Hz,0000242278c,0000000.526s, 008.0C,00002191
2020-12-03 23:07:51 r, 19.07m,0000000002Hz,0000233089c,0000000.506s, 008.0C,00002191
2020-12-03 23:17:53 r, 18.99m,0000000002Hz,0000216439c,0000000.470s, 008.0C,00002191
2020-12-03 23:27:50 r, 18.89m,0000000002Hz,0000198052c,0000000.430s, 008.3C,00002191
2020-12-03 23:37:53 r, 18.81m,0000000002Hz,0000183107c,0000000.397s, 008.3C,00002191
2020-12-03 23:47:51 r, 18.72m,0000000002Hz,0000168018c,0000000.365s, 008.0C,00002191
2020-12-03 23:57:50 r, 18.63m,0000000003Hz,0000154942c,0000000.336s, 007.7C,00002191
